|
TITAN 4B R/B - Orbit
|
3 Angels Observatory;
14:41:05
| Home | Info | Passes |
|
View from above orbital plane
|
View from above satellite
|
Ground track
|
The orbit data is extracted from the following two-line orbital elements,
1 28647U 05016B 13119.05451108 0.00002200 00000-0 14776-3 0 03
2 28647 57.0046 358.7025 0152201 140.4944 219.5055 14.97308660 09
| Epoch (UTC): | 29 April 2013 01:18:29 |
| Eccentricity: | 0.0152201 |
| inclination: | 57.0046° |
| perigee height: | 469 km |
| apogee height: | 681 km |
| right ascension of ascending node: | 358.7025° |
| argument of perigee: | 140.4944° |
| revolutions per day: | 14.97308660 |
| mean anomaly at epoch: | 219.5055° |
| orbit number at epoch: | 0 |
The dashed part of the orbit path shows where the satellite is in the earth's shadow,
|
|